Regional Weather Roundup
Issued by NWS

Current Version | Previous Version | Text Only | Print | Product List | Glossary On
Versions: 1 2 3 4 5 6 7 8 9 10 11 12 13 14 15 16 17 18 19 20 21 22 23 24 25 26 27
000
ASUS45 KPSR 031610
RWRAZ

ARIZONA HOURLY REGIONAL WEATHER ROUNDUP
NATIONAL WEATHER SERVICE PHOENIX AZ
900 AM MST SAT DEC 03 2016

NOTE: FAIR INDICATES FEW OR NO CLOUDS BELOW 12,000 FEET WITH NO
SIGNIFICANT WEATHER AND/OR OBSTRUCTIONS TO VISIBILITY.

AZZ001>003-036-031700-
NORTHWEST ARIZONA

CITY           SKY/WX    TMP DP  RH WIND       PRES   REMARKS
BULLHEAD CITY  SUNNY     50  16  25 N24G35    30.19R
KINGMAN        SUNNY     36  13  38 NE12      30.17R WCI  28
$$

AZZ004>008-015-016-018-031700-
NORTH CENTRAL ARIZONA

CITY           SKY/WX    TMP DP  RH WIND       PRES   REMARKS
GRAND CANYON   SUNNY     30  14  51 NE15G21   30.14R WCI  19
PRESCOTT       SUNNY     32  21  64 VRB3      30.08R
FLAGSTAFF      SUNNY     30  17  58 NE15G23   30.09R WCI  19
PAYSON         SUNNY     36  18  48 N15G23    30.04R WCI  26
PAGE           SUNNY     33  10  38 SW3       30.22R
$$

AZZ009>014-017-031700-
NORTHEAST ARIZONA

CITY           SKY/WX    TMP DP  RH WIND       PRES   REMARKS
WINSLOW        SUNNY     31  16  54 NW9       30.17S WCI  23
SAINT JOHNS    SUNNY     28  21  75 CALM      30.10S
SHOW LOW       PTSUNNY   19  18  93 N8        30.10S WCI   9
$$

AZZ023-031700-
GREATER PHOENIX AREA

CITY           SKY/WX    TMP DP  RH WIND       PRES   REMARKS
PHOENIX        MOSUNNY   51  25  36 W3        29.96R
BUCKEYE        SUNNY     50  23  34 N10       30.00R
LUKE AFB       SUNNY     53  28  37 N6        29.96S
DEER VALLEY    SUNNY     54  22  28 N14       29.96R
SCOTTSDALE     SUNNY     54  24  31 NW3       29.98R
MESA-GATEWAY   MOSUNNY   54  27  35 NW9       29.97R
CHANDLER       SUNNY     54  25  32 N14       29.97R
$$

AZZ027-028-031700-
SOUTHWEST MARICOPA COUNTY AND PINAL COUNTY

CITY           SKY/WX    TMP DP  RH WIND       PRES   REMARKS
CASA GRANDE    NOT AVBL
GILA BEND      SUNNY     45  28  53 NE7       29.99S
$$

AZZ503-504-507>509-031700-
SOUTHEAST ARIZONA

CITY           SKY/WX    TMP DP  RH WIND       PRES   REMARKS
TUCSON         MOSUNNY   45  24  43 NW5       29.96R
DAVIS-MONTHAN  MOSUNNY   44  24  45 SW1       29.94R
NOGALES        MOSUNNY   46  36  68 N7        29.90R
SIERRA VISTA   PTSUNNY   41  37  84 N5        29.94R
DOUGLAS        MOSUNNY   41  39  93 W7        29.92R
SAFFORD        SUNNY     48  40  73 E7        29.96R
$$

AZZ020-021-025-026-031-031700-
SOUTHWEST ARIZONA

CITY           SKY/WX    TMP DP  RH WIND       PRES   REMARKS
YUMA           SUNNY     56  15  20 N10       30.06R
$$

CAZ031-033-041-043-047-048-061-031700-
SOUTHERN CALIFORNIA

CITY           SKY/WX    TMP DP  RH WIND       PRES   REMARKS
DOWNTOWN L.A.  SUNNY     45  28  51 CALM      30.11S
L.A. AIRPORT   SUNNY     50  25  37 NE3       30.12R
SAN DIEGO      SUNNY     51  25  36 NW5       30.11S
BURBANK        SUNNY     50  14  23 CALM      30.11R
ONTARIO        MOSUNNY   49  20  31 CALM      30.11R
RIVERSIDE      SUNNY     59   5  11 N10G24    30.10F
PALM SPRINGS   SUNNY     59   6  12 N12G22    30.17R
EL CENTRO NAS  SUNNY     57  20  23 NW9       30.13R
IMPERIAL       SUNNY     57  27  31 N14       30.10R
BLYTHE         SUNNY     54  14  20 N17       30.11S
NEEDLES        SUNNY     52  16  24 N23G32    30.17S
$$

NVZ020-UTZ003-031700-
SOUTHERN NEVADA-UTAH

CITY           SKY/WX    TMP DP  RH WIND       PRES   REMARKS
LAS VEGAS      SUNNY     44   8  23 NE12      30.24R
SALT LAKE CITY CLOUDY    29  19  66 SE9       30.30R WCI  20
$$

NMZ009-TXZ055-031700-
NEW MEXICO-WEST TEXAS

CITY           SKY/WX    TMP DP  RH WIND       PRES   REMARKS
ALBUQUERQUE    CLOUDY    35  31  85 N8        30.12R WCI  29
EL PASO        CLOUDY    40  35  83 N18       29.98R WCI  31
$$


........................KEY........................
SKY/WX - SKY CONDITION/WEATHER
TMP    - TEMPERATURE IN FAHRENHEIT
DP     - DEW POINT IN FAHRENHEIT
RH     - RELATIVE HUMIDITY IN PERCENT
WIND   - DIRECTION AND SPEED IN MILES PER HOUR (MPH)
VRB    - VARIABLE WIND DIRECTION
PRES   - MEAN SEA LEVEL PRESSURE IN INCHES OF MERCURY
         F - FALLING PRESSURE   R - RISING PRESSURE
         S - STEADY PRESSURE
VSB    - VISIBILITY IN MILES
HX     - HEAT INDEX IN FAHRENHEIT
WCI    - WIND CHILL INDEX IN FAHRENHEIT
TC     - TEMPERATURE IN CELSIUS WHICH IS ALSO KNOWN AS
         TEMPERATURE IN CENTIGRADE
AFB    - AIR FORCE BASE
         LUKE AFB IS LUKE AIR FORCE BASE
         DAVIS-MONTHAN IS DAVIS-MONTHAN AIR FORCE BASE
NAS    - NAVAL AIR STATION
         EL CENTRO NAS IS EL CENTRO NAVAL AIR STATION
N/A    - NOT AVAILABLE





USA.gov is the U.S. government's official web portal to all federal, state and local government web resources and services.